Regional Weather Roundup
Issued by NWS

Home | Current Version | Previous Version | Text Only | Print | Product List | Glossary Off
Versions: 1 2 3 4 5 6 7 8 9 10 11 12 13 14 15 16 17 18 19 20 21 22 23 24 25 26 27 28 29 30 31 32 33 34 35 36 37 38 39 40 41 42 43 44 45 46 47 48 49 50

000
ASUS43 KLOT 200203
RWRIL

ILLINOIS REGIONAL WEATHER ROUNDUP
NATIONAL WEATHER SERVICE CHICAGO/ROMEOVILLE IL
800 PM CST SUN FEB 19 2017

NOTE: "FAIR" INDICATES FEW OR NO CLOUDS BELOW 12,000 FEET WITH NO
SIGNIFICANT WEATHER AND/OR OBSTRUCTIONS TO VISIBILITY.

* THESE STATIONS ARE NOT UNDER NWS QUALITY CONTROL. THEY ALSO MAY NOT
  REPORT WEATHER SUCH AS PRECIPITATION OR FOG.

ILZ001-002-007-009-015-016-024-200300-
NORTHWEST ILLINOIS

CITY           SKY/WX    TMP DP  RH WIND       PRES   REMARKS
MOLINE         CLOUDY    59  44  57 SE12      29.99S
STERLING*      MOCLDY    51  40  65 SE6       30.03R
SAVANNA*       MOCLDY    52  38  59 SE9       30.01R
$$

ILZ003-004-008-010-011-017-018-200300-
NORTH CENTRAL ILLINOIS

CITY           SKY/WX    TMP DP  RH WIND       PRES   REMARKS
ROCKFORD       CLOUDY    53  39  59 SE9       30.05S
FREEPORT*      CLOUDY    45  35  67 SE6       30.05R
ROCHELLE*      CLOUDY    47  38  70 SE9       30.05R
DE KALB*       PTCLDY    53  41  62 SE10      30.06R
PERU*          CLOUDY    55  37  50 S7        30.06R
$$

ILZ005-006-012>014-019>023-200300-
NORTHEAST ILLINOIS

CITY           SKY/WX    TMP DP  RH WIND       PRES   REMARKS
CHICAGO-OHARE  CLOUDY    48  31  51 SE6       30.07R
CHICAGO-MIDWAY MOCLDY    49  30  48 E3        30.08S
AURORA         PTCLDY    50  40  68 SE7       30.06R
LANSING*       CLEAR     48  39  69 S5        30.08F
JOLIET*        CLOUDY    55  45  69 SE3       30.07S
WAUKEGAN       CLOUDY    37  31  78 CALM      30.08R
DUPAGE AIRPORT PTCLDY    53  37  54 SE5       30.06R
KANKAKEE*      CLOUDY    51  42  71 CALM      30.09R
WHEELING       CLOUDY    44  30  57 CALM      30.09S
MORRIS*        PTCLDY    53  43  67 CALM      30.06R
ROMEOVILLE*    CLOUDY    51  44  78 SE7       30.07R
NORTHERLY ISL    N/A     40  31  70 CALM        N/A
$$

LMZ740>746-200300-
SOUTHERN LAKE MICHIGAN

STATION/POSITION SKY/WX   TEMP    WIND        PRES    VSBY  WAVE
                          AIR SEA DIR/SP/G                  HT/PER
                          (F)     (DEG/KT/KT) (MB)    (MI)  (FT/S)
HARRISON CRIB              44     160/  7/  9   N/A
BURNHAM HARBOR             41      CALM  /  2   N/A
CALUMET HARBOR             42      70/  3/  6 1018.1S
BURNS HARBOR               49      CALM  /  2 1019.3S
MICHIGAN CITY              53     110/  5/  5   N/A
$$

ILZ025>027-034>036-040-047-049-050-058-095>099-200300-
WEST-CENTRAL ILLINOIS

CITY           SKY/WX    TMP DP  RH WIND       PRES   REMARKS
QUINCY         MOCLDY    58  47  66 SE9       30.00R
GALESBURG*     CLOUDY    58  46  64 E8        30.00S
MACOMB*        CLOUDY    59  48  67 SE12      30.02S
JACKSONVILLE*  CLOUDY    57  49  76 SE8       30.03R
PITTSFIELD*    CLOUDY    59  51  74 SE8       30.03R
$$

ILZ028>032-037-038-041>044-048-051>054-059>061-200300-
CENTRAL ILLINOIS

CITY           SKY/WX    TMP DP  RH WIND       PRES   REMARKS
PONTIAC        CLOUDY    50  43  75 SE6       30.07R
BLOOMINGTON    PTCLDY    55  48  77 S12       30.08R
DECATUR        CLOUDY    53  48  83 S8        30.07S
PEORIA         CLOUDY    60  46  59 S7        30.04R
LACON*         PTCLDY    57  42  58 SE9       30.04R
LINCOLN*       PTCLDY    54  49  83 S3        30.06R
SPRINGFIELD    PTCLDY    57  49  74 S9        30.05S
TAYLORVILLE    PTCLDY    54  50  85 SE10      30.05S
$$

ILZ033-039-045-046-055>057-062-063-200300-
EAST-CENTRAL ILLINOIS

CITY           SKY/WX    TMP DP  RH WIND       PRES   REMARKS
CHAMPAIGN      PTCLDY    50  45  83 S8        30.09R HAZE
RANTOUL*       PTCLDY    51  47  85 S6        30.09R
MATTOON        CLEAR     50  50 100 S9        30.08R FOG
PARIS*         CLEAR     46  44  96 SE3       30.11R FOG
$$

ILZ079-100>102-200300-
SOUTHWEST ILLINOIS

CITY           SKY/WX    TMP DP  RH WIND       PRES   REMARKS
ALTON          CLEAR     57  52  82 SE9       30.05R
BELLEVILLE     PTCLDY    55  55  99 E8        30.05R
CAHOKIA*       CLEAR     61  52  72 SE14      30.04R
SPARTA*        PTCLDY    57  52  85 SE6       30.07S
$$

ILZ064>066-069>071-074>076-080>082-084>086-088>090-092>094-200300-
SOUTH-CENTRAL ILLINOIS

CITY           SKY/WX    TMP DP  RH WIND       PRES   REMARKS
CARBONDALE     PTCLDY    54  52  93 SE7       30.07F
CAIRO*         CLEAR     53  52  97 E5        30.07F FOG
EFFINGHAM*     CLOUDY    51  51 100 E7        30.11S FOG
MARION         PTCLDY    52  52 100 SE5       30.09S
MT. VERNON     PTCLDY    51  50  96 E6        30.09S FOG
CENTRALIA*     CLOUDY    53  52  97 SE6       30.07S FOG
SALEM*         CLOUDY    54  51  90 SE7       30.08S FOG
METROPOLIS*    FOG       48  48  99 CALM      30.09F VSB<1/4
$$

ILZ067-068-072-073-078-083-087-091-200300-
SOUTHEAST ILLINOIS

CITY           SKY/WX    TMP DP  RH WIND       PRES   REMARKS
LAWRENCEVILLE  FOG       43  41  93 SE5       30.12R VSB 1/4
FLORA*         CLOUDY    53  51  94 SE8       30.11S FOG
FAIRFIELD*     CLOUDY    50  50  99 CALM      30.10S FOG
HARRISBURG*    CLEAR     50  50  99 E5        30.10S FOG
ROBINSON*      FOG       42  42 100 CALM      30.12S VSB 1/2
CARMI*         FOG       44  44 100 SE3       30.10S VSB 1/4
$$

ABBREVIATIONS USED IN REMARKS
   TC - TEMPERATURE IN CELSIUS
  WCI - WIND CHILL INDEX
   HX - HEAT INDEX
  VSB - VISIBILITY
$$





USA.gov is the U.S. government's official web portal to all federal, state and local government web resources and services.